Hourly Weather Roundup
Issued by NWS Central Illinois

Home | Current Version | Previous Version | Text Only | Print | Product List | Glossary On
Versions: 1 2 3 4 5 6 7 8 9 10 11 12 13 14 15 16 17 18 19 20 21 22 23 24 25 26 27 28 29 30 31 32 33 34 35 36 37 38 39 40 41 42 43 44 45 46 47 48 49 50
895
NZUS43 KILX 170910
HWRILX

Area Weather Roundup
National Weather Service Lincoln IL
400 AM CDT TUE OCT 17 2017

NOTE:  "FAIR" indicates few or no clouds below 12,000 feet, with
       no sigificant weather and/or obstructions to visibility.


CITY           SKY/WX    TMP DP  RH WIND       PRES   REMARKS
Bloomington    CLEAR     46  38  73 SW10      30.27R
Champaign      CLEAR     42  37  82 S8        30.29R
Danville       CLEAR     42  37  82 SW5       30.26R
Decatur        CLOUDY    44  38  79 SW7       30.28R
Effingham      CLEAR     44  38  81 CALM      30.31S
Flora          CLEAR     43  39  86 CALM      30.32R
Galesburg      PTCLDY    45  39  78 S6        30.22S
Jacksonville   CLOUDY    46  39  75 S7        30.26S
Lacon          CLOUDY    48  41  76 S5        30.22S
Lawrenceville  CLEAR    N/A N/A N/A S3        30.32S
Litchfield     CLEAR     41  37  86 S3        30.29R
$$


CITY           SKY/WX    TMP DP  RH WIND       PRES   REMARKS
Lincoln        PTCLDY    46  40  82 CALM      30.27R
Macomb         PTCLDY    47  40  77 SW7       30.24F
Mattoon        CLEAR     47  39  74 S6        30.28S
Mt Carmel AP   CLEAR     40  39  95 CALM      30.31F
Olney-Noble AP CLEAR     39  38  93 CALM      30.32S
Paris AP       CLEAR     46  38  75 SW8       30.30S
Peoria         CLEAR     44  40  85 S6        30.24S
Pontiac        CLEAR     48  42  80 SW7       30.25R
Rantoul        CLEAR     44  40  85 S3        30.27R
Robinson       CLEAR     39  37  92 CALM      30.32S
Springfield    CLOUDY    49  40  71 SW5       30.27S
Taylorville    CLEAR     44  38  79 S7        30.29R
$$

...REGIONAL REPORTS...


CITY           SKY/WX    TMP DP  RH WIND       PRES   REMARKS
Chicago O`Hare PTCLDY    50  37  61 SW9       30.19S
Kankakee       CLEAR     45  38  75 SW7       30.26R
Moline         CLEAR     50  37  61 CALM      30.18S
Mount Sterling PTCLDY    43  38  84 S6        30.24S
Mount Vernon   CLEAR     36  36 100 CALM      30.32S FOG
Pittsfield     PTCLDY    49  40  73 SW5       30.26F
Quincy         CLEAR     47  40  76 S8        30.24S
Rockford       CLOUDY    48  38  68 S5        30.18F
$$


CITY           SKY/WX    TMP DP  RH WIND       PRES   REMARKS
Burlington     PTCLDY    48  42  80 SW7       30.20F
Cedar Rapids   PTCLDY    49  40  71 SW7       30.13S
Des Moines     CLEAR     54  40  59 S12       30.12F
Kirksville     PTCLDY    49  43  80 S6        30.22F
Ottumwa        PTCLDY    51  40  65 SW10      30.16S
St Louis       PTCLDY    50  39  66 SW6       30.29R
$$


CITY           SKY/WX    TMP DP  RH WIND       PRES   REMARKS
Terre Haute    CLEAR     38  36  92 CALM      30.31S
Evansville     CLEAR     41  39  93 CALM      30.33F
Indianapolis   CLEAR     44  38  79 SW6       30.31R
Lafayette      CLEAR     41  38  89 CALM      30.29R
Madison        CLEAR     52  39  61 S9        30.09F
Milwaukee      PTCLDY    49  38  65 SW13      30.12F
$$






USA.gov is the U.S. government's official web portal to all federal, state and local government web resources and services.